QPF
0.09 0.12 0.16 0.16 0.10 0.05 0.02 0.01 0.01 0.01 0.00 0.01 0.01 0.01 0.00 0.00 0.00 0.00 0.00 0.00 0.00 0.00 0.00 0.00 0.00 0.00 0.00 0.00 0.00 0.00 0.00 0.00 0.00 0.00 0.00 0.00 0.01 0.03 0.04 0.05 0.06 0.07 0.09
0.10 0.10 0.11 0.12 0.09 0.04 0.02 0.01 0.01 0.01 0.01 0.02 0.01 0.01 0.00 0.00 0.00 0.00 0.00 0.00 0.00 0.00 0.00 0.00 0.00 0.00 0.00 0.00 0.01 0.01 0.01 0.01 0.01 0.01 0.00 0.00 0.02 0.04 0.05 0.07 0.08 0.09 0.11
0.07 0.05 0.05 0.05 0.04 0.01 0.01 0.01 0.02 0.01 0.01 0.01 0.01 0.01 0.00 0.00 0.00 0.00 0.00 0.00 0.00 0.00 0.00 0.00 0.00 0.00 0.00 0.00 0.01 0.01 0.02 0.02 0.01 0.01 0.01 0.01 0.02 0.03 0.04 0.06 0.09 0.12 0.13
0.04 0.04 0.03 0.01 0.01 0.00 0.01 0.01 0.01 0.02 0.01 0.01 0.02 0.01 0.01 0.00 0.00 0.00 0.00 0.00 0.00 0.00 0.00 0.00 0.00 0.00 0.00 0.00 0.00 0.01 0.01 0.01 0.01 0.01 0.01 0.01 0.01 0.01 0.02 0.03 0.06 0.09 0.10
0.02 0.02 0.01 0.00 0.00 0.00 0.00 0.01 0.02 0.03 0.02 0.01 0.01 0.01 0.01 0.00 0.00 0.00 0.00 0.00 0.00 0.00 0.00 0.00 0.00 0.00 0.00 0.00 0.00 0.00 0.01 0.01 0.01 0.01 0.02 0.01 0.02 0.01 0.01 0.01 0.03 0.04 0.05
0.00 0.00 0.00 0.00 0.00 0.00 0.00 0.00 0.02 0.03 0.02 0.01 0.01 0.01 0.00 0.00 0.00 0.00 0.00 0.00 0.00 0.00 0.00 0.00 0.00 0.00 0.00 0.00 0.00 0.00 0.01 0.01 0.01 0.01 0.01 0.01 0.01 0.01 0.02 0.01 0.01 0.01 0.02
0.00 0.00 0.00 0.00 0.00 0.00 0.00 0.00 0.01 0.03 0.02 0.01 0.01 0.00 0.00 0.00 0.00 0.00 0.00 0.00 0.00 0.00 0.00 0.00 0.00 0.00 0.00 0.00 0.00 0.00 0.00 0.00 0.01 0.01 0.01 0.01 0.01 0.01 0.01 0.01 0.00 0.00 0.00
0.00 0.00 0.00 0.00 0.00 0.00 0.00 0.00 0.00 0.01 0.01 0.01 0.00 0.00 0.00 0.00 0.00 0.00 0.00 0.00 0.00 0.00 0.00 0.00 0.00 0.00 0.00 0.00 0.00 0.00 0.00 0.00 0.01 0.01 0.01 0.00 0.00 0.00 0.01 0.01 0.00 0.00 0.00
0.00 0.00 0.00 0.00 0.00 0.00 0.00 0.00 0.00 0.00 0.00 0.00 0.00 0.00 0.00 0.00 0.00 0.00 0.00 0.00 0.00 0.00 0.00 0.00 0.00 0.00 0.00 0.00 0.00 0.00 0.00 0.00 0.00 0.00 0.01 0.01 0.00 0.00 0.00 0.00 0.00 0.00 0.00
0.00 0.00 0.00 0.00 0.00 0.00 0.00 0.00 0.00 0.00 0.00 0.00 0.00 0.00 0.00 0.00 0.00 0.00 0.00 0.00 0.00 0.00 0.00 0.00 0.00 0.00 0.01 0.01 0.01 0.01 0.01 0.01 0.01 0.01 0.01 0.01 0.00 0.00 0.00 0.00 0.00 0.00 0.00
0.00 0.00 0.00 0.00 0.00 0.00 0.00 0.00 0.00 0.00 0.00 0.00 0.00 0.00 0.00 0.00 0.00 0.00 0.00 0.00 0.00 0.00 0.00 0.01 0.01 0.01 0.01 0.01 0.01 0.01 0.01 0.01 0.01 0.01 0.01 0.01 0.01 0.01 0.00 0.00 0.00 0.01 0.01
0.00 0.00 0.00 0.00 0.00 0.00 0.00 0.00 0.00 0.00 0.00 0.00 0.00 0.00 0.00 0.00 0.00 0.00 0.00 0.00 0.00 0.00 0.00 0.00 0.01 0.01 0.01 0.01 0.01 0.01 0.01 0.01 0.01 0.02 0.02 0.02 0.02 0.02 0.01 0.01 0.01 0.01 0.01
0.00 0.00 0.00 0.00 0.00 0.00 0.00 0.00 0.00 0.00 0.00 0.00 0.00 0.00 0.00 0.00 0.00 0.00 0.00 0.00 0.00 0.00 0.00 0.00 0.01 0.01 0.01 0.01 0.01 0.01 0.01 0.01 0.02 0.02 0.02 0.02 0.03 0.02 0.02 0.02 0.01 0.01 0.01
0.00 0.00 0.00 0.00 0.00 0.00 0.00 0.00 0.00 0.00 0.00 0.00 0.00 0.00 0.00 0.00 0.00 0.00 0.00 0.00 0.00 0.00 0.00 0.00 0.01 0.01 0.01 0.01 0.01 0.01 0.02 0.02 0.02 0.02 0.02 0.02 0.02 0.03 0.04 0.03 0.03 0.02 0.02
0.00 0.00 0.00 0.00 0.00 0.00 0.00 0.00 0.00 0.00 0.00 0.00 0.00 0.00 0.00 0.00 0.00 0.00 0.00 0.00 0.00 0.00 0.00 0.01 0.01 0.01 0.00 0.01 0.01 0.01 0.01 0.01 0.01 0.02 0.02 0.02 0.02 0.02 0.02 0.01 0.01 0.02 0.03
0.00 0.00 0.00 0.00 0.00 0.00 0.00 0.00 0.00 0.00 0.00 0.00 0.00 0.00 0.00 0.00 0.00 0.00 0.00 0.00 0.00 0.00 0.00 0.00 0.00 0.00 0.00 0.00 0.00 0.00 0.00 0.00 0.01 0.01 0.02 0.02 0.01 0.01 0.00 0.00 0.00 0.00 0.01
0.00 0.00 0.00 0.00 0.00 0.00 0.00 0.00 0.00 0.00 0.00 0.00 0.00 0.00 0.00 0.00 0.00 0.00 0.00 0.00 0.00 0.00 0.00 0.00 0.00 0.01 0.01 0.00 0.00 0.00 0.00 0.00 0.00 0.01 0.02 0.01 0.01 0.02 0.02 0.02 0.01 0.01 0.00
0.00 0.00 0.00 0.00 0.00 0.00 0.00 0.00 0.00 0.00 0.00 0.00 0.00 0.00 0.00 0.00 0.00 0.00 0.00 0.00 0.00 0.00 0.01 0.00 0.01 0.01 0.02 0.01 0.00 0.00 0.00 0.00 0.00 0.01 0.02 0.03 0.03 0.04 0.04 0.05 0.05 0.04 0.03
0.00 0.00 0.00 0.00 0.00 0.00 0.00 0.00 0.00 0.00 0.00 0.00 0.00 0.00 0.00 0.00 0.00 0.00 0.00 0.00 0.00 0.00 0.00 0.01 0.01 0.02 0.03 0.02 0.00 0.00 0.00 0.00 0.01 0.01 0.02 0.04 0.05 0.04 0.01 0.02 0.03 0.03 0.03
0.00 0.00 0.00 0.00 0.00 0.00 0.00 0.00 0.00 0.00 0.00 0.00 0.00 0.00 0.00 0.00 0.00 0.00 0.00 0.00 0.00 0.00 0.00 0.01 0.01 0.02 0.03 0.04 0.01 0.00 0.00 0.00 0.01 0.02 0.03 0.02 0.01 0.01 0.00 0.01 0.03 0.03 0.03
0.00 0.00 0.00 0.00 0.00 0.00 0.00 0.00 0.00 0.00 0.00 0.00 0.00 0.00 0.00 0.00 0.00 0.00 0.01 0.01 0.01 0.01 0.01 0.01 0.02 0.03 0.03 0.04 0.01 0.00 0.00 0.01 0.01 0.01 0.02 0.03 0.01 0.00 0.00 0.01 0.01 0.01 0.02
0.00 0.00 0.00 0.00 0.00 0.00 0.00 0.00 0.00 0.00 0.00 0.00 0.00 0.00 0.00 0.00 0.00 0.01 0.01 0.01 0.01 0.01 0.01 0.02 0.03 0.04 0.05 0.03 0.02 0.01 0.00 0.00 0.01 0.01 0.02 0.03 0.00 0.00 0.00 0.00 0.00 0.00 0.00
0.00 0.00 0.00 0.00 0.00 0.00 0.00 0.00 0.00 0.01 0.00 0.00 0.00 0.01 0.01 0.01 0.01 0.01 0.01 0.01 0.01 0.01 0.01 0.02 0.03 0.02 0.04 0.05 0.02 0.01 0.00 0.00 0.00 0.00 0.01 0.01 0.00 0.00 0.00 0.00 0.00 0.00 0.00
0.00 0.00 0.00 0.00 0.00 0.00 0.00 0.00 0.00 0.00 0.00 0.01 0.01 0.01 0.01 0.01 0.01 0.01 0.00 0.00 0.00 0.00 0.01 0.02 0.02 0.02 0.03 0.06 0.07 0.06 0.04 0.03 0.02 0.02 0.02 0.01 0.01 0.00 0.00 0.01 0.01 0.01 0.01
0.00 0.00 0.00 0.00 0.00 0.00 0.00 0.00 0.00 0.00 0.01 0.01 0.01 0.01 0.01 0.01 0.01 0.01 0.01 0.00 0.00 0.01 0.01 0.01 0.01 0.01 0.02 0.03 0.02 0.02 0.02 0.03 0.04 0.03 0.02 0.02 0.03 0.04 0.05 0.05 0.06 0.06 0.06
0.00 0.00 0.00 0.00 0.00 0.00 0.00 0.00 0.00 0.01 0.01 0.01 0.02 0.02 0.01 0.01 0.00 0.00 0.01 0.01 0.01 0.01 0.01 0.00 0.00 0.00 0.00 0.00 0.00 0.00 0.00 0.00 0.00 0.00 0.00 0.01 0.03 0.05 0.08 0.10 0.11 0.12 0.11
MSLP
1012.35 1012.64 1012.88 1013.09 1013.28 1013.46 1013.65 1013.87 1014.11 1014.37 1014.65 1014.93 1015.20 1015.46 1015.69 1015.90 1016.08 1016.22 1016.32 1016.37 1016.38 1016.35 1016.28 1016.19 1016.10 1016.01 1015.95 1015.91 1015.90 1015.91 1015.92 1015.93 1015.91 1015.85 1015.73 1015.55 1015.30 1014.99 1014.65 1014.31 1014.00 1013.75 1013.60
1012.99 1013.28 1013.48 1013.61 1013.67 1013.71 1013.76 1013.85 1014.01 1014.23 1014.51 1014.81 1015.13 1015.42 1015.67 1015.87 1016.01 1016.11 1016.16 1016.19 1016.20 1016.20 1016.20 1016.20 1016.20 1016.19 1016.18 1016.16 1016.14 1016.11 1016.08 1016.04 1015.99 1015.91 1015.80 1015.63 1015.41 1015.14 1014.82 1014.47 1014.12 1013.80 1013.56
1013.39 1013.66 1013.81 1013.86 1013.82 1013.75 1013.70 1013.71 1013.82 1014.02 1014.32 1014.66 1015.02 1015.35 1015.61 1015.80 1015.92 1015.97 1015.99 1015.99 1016.00 1016.04 1016.10 1016.17 1016.25 1016.32 1016.36 1016.37 1016.35 1016.30 1016.24 1016.16 1016.09 1016.01 1015.91 1015.78 1015.61 1015.38 1015.08 1014.74 1014.37 1014.01 1013.69
1013.37 1013.61 1013.73 1013.74 1013.65 1013.53 1013.44 1013.43 1013.54 1013.77 1014.10 1014.50 1014.90 1015.26 1015.55 1015.73 1015.82 1015.85 1015.83 1015.82 1015.83 1015.89 1015.99 1016.13 1016.27 1016.40 1016.48 1016.51 1016.50 1016.44 1016.36 1016.27 1016.19 1016.12 1016.05 1015.96 1015.83 1015.65 1015.40 1015.08 1014.71 1014.31 1013.93
1012.88 1013.11 1013.22 1013.23 1013.16 1013.06 1013.00 1013.03 1013.19 1013.48 1013.87 1014.33 1014.78 1015.18 1015.49 1015.68 1015.76 1015.76 1015.72 1015.69 1015.70 1015.77 1015.90 1016.06 1016.25 1016.41 1016.52 1016.57 1016.56 1016.50 1016.42 1016.33 1016.25 1016.19 1016.15 1016.10 1016.03 1015.90 1015.69 1015.40 1015.04 1014.63 1014.20
1011.98 1012.20 1012.35 1012.42 1012.42 1012.41 1012.44 1012.56 1012.81 1013.18 1013.65 1014.17 1014.67 1015.11 1015.43 1015.62 1015.70 1015.69 1015.64 1015.59 1015.59 1015.66 1015.79 1015.97 1016.16 1016.34 1016.46 1016.52 1016.52 1016.46 1016.38 1016.29 1016.23 1016.19 1016.17 1016.16 1016.13 1016.04 1015.88 1015.63 1015.30 1014.89 1014.45
1010.82 1011.07 1011.28 1011.44 1011.55 1011.67 1011.83 1012.08 1012.43 1012.90 1013.44 1014.01 1014.55 1015.01 1015.35 1015.55 1015.63 1015.61 1015.55 1015.50 1015.49 1015.54 1015.66 1015.82 1016.00 1016.17 1016.28 1016.34 1016.34 1016.29 1016.21 1016.14 1016.09 1016.07 1016.07 1016.09 1016.09 1016.04 1015.92 1015.71 1015.41 1015.03 1014.60
1009.62 1009.91 1010.21 1010.48 1010.73 1010.99 1011.29 1011.66 1012.12 1012.66 1013.25 1013.85 1014.41 1014.88 1015.22 1015.43 1015.50 1015.49 1015.43 1015.37 1015.35 1015.38 1015.47 1015.61 1015.76 1015.90 1015.99 1016.04 1016.03 1015.98 1015.92 1015.86 1015.82 1015.82 1015.84 1015.87 1015.89 1015.87 1015.78 1015.61 1015.35 1015.02 1014.62
1008.61 1008.95 1009.32 1009.71 1010.09 1010.48 1010.90 1011.36 1011.89 1012.48 1013.09 1013.69 1014.23 1014.68 1015.01 1015.21 1015.30 1015.29 1015.24 1015.18 1015.15 1015.17 1015.23 1015.32 1015.44 1015.54 1015.61 1015.63 1015.62 1015.58 1015.52 1015.47 1015.45 1015.45 1015.48 1015.52 1015.55 1015.54 1015.48 1015.34 1015.13 1014.85 1014.51
1007.92 1008.31 1008.76 1009.23 1009.71 1010.19 1010.69 1011.22 1011.78 1012.36 1012.95 1013.51 1014.01 1014.42 1014.72 1014.90 1014.99 1015.00 1014.96 1014.92 1014.89 1014.89 1014.92 1014.99 1015.06 1015.12 1015.16 1015.17 1015.15 1015.11 1015.07 1015.03 1015.01 1015.02 1015.05 1015.08 1015.11 1015.10 1015.05 1014.95 1014.78 1014.55 1014.27
1007.62 1008.04 1008.54 1009.06 1009.60 1010.13 1010.67 1011.21 1011.75 1012.29 1012.81 1013.30 1013.73 1014.08 1014.34 1014.50 1014.59 1014.61 1014.60 1014.57 1014.56 1014.56 1014.58 1014.62 1014.66 1014.69 1014.71 1014.70 1014.68 1014.64 1014.61 1014.58 1014.57 1014.57 1014.59 1014.60 1014.61 1014.59 1014.54 1014.46 1014.33 1014.15 1013.94
1007.60 1008.06 1008.57 1009.12 1009.68 1010.22 1010.75 1011.26 1011.75 1012.23 1012.67 1013.07 1013.41 1013.69 1013.90 1014.05 1014.13 1014.17 1014.18 1014.19 1014.19 1014.21 1014.23 1014.26 1014.28 1014.29 1014.29 1014.27 1014.25 1014.22 1014.19 1014.16 1014.15 1014.14 1014.13 1014.12 1014.10 1014.06 1014.00 1013.92 1013.82 1013.69 1013.54
1007.73 1008.19 1008.71 1009.25 1009.79 1010.32 1010.82 1011.29 1011.73 1012.13 1012.49 1012.81 1013.07 1013.29 1013.45 1013.57 1013.65 1013.71 1013.75 1013.79 1013.83 1013.86 1013.89 1013.92 1013.93 1013.94 1013.92 1013.90 1013.88 1013.85 1013.82 1013.80 1013.77 1013.74 1013.70 1013.65 1013.59 1013.52 1013.45 1013.37 1013.28 1013.20 1013.10
1007.83 1008.28 1008.77 1009.29 1009.81 1010.31 1010.78 1011.21 1011.61 1011.95 1012.26 1012.51 1012.72 1012.88 1013.01 1013.12 1013.20 1013.28 1013.34 1013.41 1013.47 1013.53 1013.57 1013.60 1013.62 1013.62 1013.60 1013.58 1013.55 1013.52 1013.49 1013.46 1013.41 1013.36 1013.28 1013.19 1013.09 1012.99 1012.88 1012.79 1012.72 1012.67 1012.62
1007.74 1008.16 1008.63 1009.11 1009.60 1010.08 1010.53 1010.95 1011.33 1011.66 1011.94 1012.17 1012.35 1012.50 1012.62 1012.71 1012.80 1012.89 1012.97 1013.06 1013.14 1013.21 1013.26 1013.30 1013.31 1013.31 1013.29 1013.26 1013.23 1013.20 1013.16 1013.11 1013.05 1012.96 1012.85 1012.71 1012.57 1012.43 1012.30 1012.20 1012.14 1012.10 1012.10
1007.40 1007.78 1008.19 1008.64 1009.10 1009.57 1010.04 1010.48 1010.88 1011.23 1011.54 1011.79 1011.98 1012.14 1012.26 1012.37 1012.46 1012.55 1012.64 1012.73 1012.81 1012.88 1012.94 1012.96 1012.97 1012.96 1012.94 1012.91 1012.87 1012.83 1012.78 1012.71 1012.62 1012.50 1012.36 1012.19 1012.01 1011.84 1011.69 1011.58 1011.52 1011.51 1011.54
1006.81 1007.13 1007.49 1007.90 1008.34 1008.82 1009.31 1009.80 1010.26 1010.68 1011.04 1011.35 1011.59 1011.78 1011.93 1012.05 1012.15 1012.24 1012.33 1012.40 1012.47 1012.53 1012.56 1012.57 1012.57 1012.54 1012.51 1012.46 1012.42 1012.37 1012.30 1012.22 1012.11 1011.97 1011.80 1011.61 1011.40 1011.21 1011.05 1010.94 1010.88 1010.89 1010.95
1006.09 1006.32 1006.62 1006.98 1007.41 1007.90 1008.43 1008.97 1009.51 1010.01 1010.46 1010.85 1011.16 1011.41 1011.60 1011.73 1011.84 1011.92 1011.99 1012.04 1012.08 1012.10 1012.11 1012.09 1012.06 1012.02 1011.97 1011.92 1011.86 1011.80 1011.73 1011.64 1011.52 1011.37 1011.19 1010.98 1010.77 1010.57 1010.40 1010.29 1010.24 1010.26 1010.34
1005.37 1005.51 1005.73 1006.04 1006.45 1006.94 1007.50 1008.09 1008.71 1009.29 1009.83 1010.30 1010.68 1010.98 1011.21 1011.37 1011.47 1011.54 1011.58 1011.59 1011.60 1011.58 1011.55 1011.51 1011.46 1011.40 1011.34 1011.28 1011.23 1011.16 1011.09 1011.00 1010.88 1010.73 1010.55 1010.35 1010.14 1009.94 1009.78 1009.67 1009.63 1009.66 1009.74
1004.82 1004.86 1005.00 1005.25 1005.61 1006.08 1006.65 1007.27 1007.93 1008.57 1009.18 1009.70 1010.14 1010.49 1010.74 1010.91 1011.01 1011.05 1011.06 1011.04 1011.01 1010.96 1010.90 1010.83 1010.77 1010.71 1010.65 1010.60 1010.55 1010.50 1010.44 1010.36 1010.25 1010.11 1009.95 1009.76 1009.56 1009.37 1009.22 1009.11 1009.07 1009.08 1009.16
1004.56 1004.51 1004.57 1004.74 1005.04 1005.46 1005.99 1006.61 1007.26 1007.92 1008.54 1009.09 1009.56 1009.92 1010.18 1010.34 1010.42 1010.45 1010.42 1010.37 1010.30 1010.23 1010.15 1010.08 1010.02 1009.97 1009.93 1009.90 1009.88 1009.85 1009.81 1009.76 1009.67 1009.55 1009.40 1009.23 1009.04 1008.87 1008.71 1008.61 1008.55 1008.55 1008.61
1004.66 1004.54 1004.51 1004.59 1004.81 1005.15 1005.62 1006.16 1006.77 1007.39 1007.98 1008.50 1008.95 1009.29 1009.52 1009.66 1009.72 1009.71 1009.66 1009.58 1009.50 1009.41 1009.34 1009.28 1009.25 1009.23 1009.23 1009.24 1009.25 1009.26 1009.26 1009.23 1009.16 1009.06 1008.93 1008.77 1008.59 1008.41 1008.26 1008.14 1008.06 1008.04 1008.06
1005.12 1004.94 1004.84 1004.84 1004.96 1005.20 1005.55 1006.00 1006.50 1007.02 1007.52 1007.98 1008.35 1008.63 1008.81 1008.90 1008.92 1008.87 1008.79 1008.70 1008.61 1008.53 1008.48 1008.46 1008.47 1008.50 1008.56 1008.62 1008.69 1008.74 1008.77 1008.77 1008.72 1008.63 1008.49 1008.33 1008.15 1007.96 1007.79 1007.65 1007.56 1007.50 1007.49
1005.88 1005.67 1005.51 1005.43 1005.45 1005.57 1005.79 1006.09 1006.46 1006.84 1007.21 1007.55 1007.81 1007.99 1008.09 1008.11 1008.06 1007.97 1007.86 1007.75 1007.66 1007.60 1007.58 1007.61 1007.68 1007.79 1007.91 1008.04 1008.17 1008.26 1008.33 1008.34 1008.29 1008.20 1008.05 1007.86 1007.66 1007.45 1007.25 1007.09 1006.96 1006.88 1006.84
1006.83 1006.61 1006.42 1006.27 1006.19 1006.19 1006.27 1006.42 1006.62 1006.85 1007.06 1007.24 1007.37 1007.42 1007.41 1007.33 1007.21 1007.06 1006.90 1006.77 1006.68 1006.64 1006.67 1006.75 1006.89 1007.07 1007.27 1007.47 1007.64 1007.78 1007.86 1007.88 1007.82 1007.70 1007.52 1007.30 1007.05 1006.80 1006.57 1006.38 1006.23 1006.13 1006.08
1007.84 1007.62 1007.41 1007.21 1007.06 1006.95 1006.91 1006.91 1006.95 1007.00 1007.05 1007.07 1007.04 1006.95 1006.81 1006.62 1006.39 1006.17 1005.96 1005.80 1005.70 1005.68 1005.74 1005.88 1006.08 1006.33 1006.59 1006.85 1007.08 1007.24 1007.33 1007.34 1007.25 1007.09 1006.86 1006.58 1006.28 1005.98 1005.72 1005.50 1005.33 1005.23 1005.18
Thickness
5757 5757 5757 5756 5752 5748 5747 5744 5742 5740 5737 5734 5730 5727 5726 5725 5724 5721 5716 5713 5709 5707 5705 5705 5703 5704 5703 5702 5701 5700 5699 5699 5702 5702 5703 5709 5716 5718 5720 5720 5721 5721 5721
5751 5750 5751 5751 5748 5746 5745 5743 5740 5737 5735 5732 5729 5726 5724 5723 5723 5720 5716 5711 5707 5704 5703 5700 5699 5698 5697 5697 5696 5694 5692 5693 5696 5694 5692 5693 5701 5709 5716 5715 5715 5716 5716
5748 5747 5747 5748 5748 5745 5744 5744 5740 5737 5734 5732 5729 5726 5723 5720 5719 5716 5714 5710 5706 5702 5700 5697 5695 5693 5692 5691 5690 5689 5687 5685 5688 5690 5687 5683 5684 5690 5702 5706 5708 5709 5710
5751 5749 5748 5748 5749 5748 5748 5746 5742 5737 5734 5731 5726 5722 5718 5714 5714 5713 5711 5708 5704 5701 5698 5695 5692 5689 5688 5687 5686 5685 5682 5681 5680 5683 5685 5685 5683 5678 5681 5691 5698 5701 5703
5755 5753 5752 5752 5753 5753 5751 5747 5742 5737 5734 5730 5725 5720 5716 5715 5714 5711 5708 5705 5703 5701 5698 5694 5690 5687 5685 5684 5682 5680 5679 5677 5675 5675 5676 5677 5678 5677 5673 5674 5682 5689 5694
5761 5758 5758 5757 5756 5756 5753 5749 5742 5737 5733 5728 5725 5720 5715 5712 5708 5705 5702 5701 5701 5700 5698 5693 5689 5685 5682 5680 5677 5676 5674 5673 5671 5670 5669 5668 5668 5668 5668 5668 5671 5676 5683
5765 5762 5760 5758 5756 5755 5753 5750 5743 5736 5732 5728 5724 5720 5715 5711 5706 5703 5701 5699 5697 5696 5694 5690 5685 5681 5678 5676 5674 5671 5670 5668 5666 5664 5663 5663 5663 5663 5663 5662 5663 5666 5672
5771 5767 5765 5762 5759 5757 5754 5750 5743 5736 5732 5728 5724 5719 5715 5710 5707 5705 5701 5697 5694 5692 5690 5686 5682 5679 5675 5673 5670 5667 5665 5665 5662 5660 5658 5656 5656 5656 5656 5655 5654 5654 5658
5775 5772 5769 5766 5762 5758 5754 5750 5743 5736 5732 5728 5723 5718 5713 5709 5705 5701 5697 5695 5692 5690 5687 5683 5679 5676 5672 5669 5666 5662 5660 5658 5656 5654 5652 5650 5649 5649 5649 5649 5648 5645 5643
5778 5776 5773 5769 5765 5760 5755 5750 5742 5735 5731 5727 5722 5720 5714 5709 5704 5699 5695 5692 5689 5685 5682 5679 5676 5672 5669 5666 5662 5658 5655 5652 5649 5647 5644 5642 5641 5640 5640 5639 5639 5639 5638
5782 5779 5775 5771 5766 5761 5754 5746 5740 5734 5729 5725 5721 5717 5712 5708 5704 5699 5695 5691 5687 5683 5679 5676 5672 5668 5665 5661 5657 5652 5649 5645 5642 5639 5637 5634 5632 5630 5629 5629 5629 5629 5630
5786 5782 5777 5771 5765 5759 5753 5746 5740 5734 5730 5726 5721 5715 5711 5706 5701 5697 5694 5690 5686 5682 5678 5674 5669 5665 5661 5657 5652 5646 5643 5638 5634 5631 5628 5625 5623 5621 5619 5618 5617 5618 5620
5785 5781 5775 5768 5762 5757 5752 5747 5741 5736 5732 5727 5720 5714 5709 5705 5700 5696 5692 5688 5683 5678 5674 5670 5665 5660 5656 5651 5646 5641 5636 5631 5626 5622 5619 5616 5613 5611 5609 5608 5607 5608 5610
5782 5777 5771 5765 5760 5756 5751 5745 5740 5737 5732 5726 5720 5713 5708 5703 5699 5695 5690 5685 5680 5675 5670 5666 5661 5656 5651 5646 5641 5635 5629 5624 5619 5614 5610 5607 5605 5602 5600 5599 5598 5598 5599
5777 5773 5768 5762 5757 5752 5748 5743 5738 5735 5730 5723 5717 5712 5707 5702 5697 5692 5687 5682 5677 5672 5667 5661 5656 5651 5645 5641 5636 5629 5623 5617 5611 5606 5603 5600 5598 5596 5594 5593 5592 5590 5589
5776 5773 5768 5762 5755 5750 5745 5740 5736 5732 5726 5719 5714 5710 5705 5699 5694 5689 5684 5679 5673 5668 5662 5656 5650 5645 5640 5634 5626 5619 5613 5607 5602 5598 5595 5593 5591 5591 5589 5588 5586 5584 5581
5777 5773 5768 5762 5756 5751 5745 5739 5735 5730 5724 5717 5711 5707 5701 5695 5690 5686 5681 5674 5669 5663 5657 5651 5645 5639 5633 5626 5618 5611 5605 5600 5595 5591 5588 5586 5587 5586 5585 5583 5581 5579 5577
5776 5773 5769 5764 5759 5754 5747 5740 5735 5727 5721 5714 5709 5704 5698 5693 5687 5682 5676 5670 5664 5657 5651 5646 5640 5634 5628 5621 5613 5605 5599 5594 5590 5586 5583 5581 5580 5579 5578 5576 5576 5574 5574
5778 5775 5772 5768 5761 5755 5748 5739 5731 5725 5718 5712 5707 5702 5696 5689 5683 5676 5670 5665 5658 5651 5646 5640 5635 5629 5623 5616 5608 5599 5594 5590 5587 5584 5582 5579 5577 5575 5573 5570 5569 5568 5568
5776 5773 5771 5766 5759 5754 5748 5737 5728 5722 5715 5711 5706 5700 5694 5686 5678 5671 5664 5658 5652 5645 5640 5636 5630 5624 5618 5612 5603 5594 5590 5586 5584 5581 5579 5577 5575 5572 5568 5565 5563 5562 5562
5769 5768 5765 5759 5755 5750 5743 5732 5725 5719 5715 5710 5704 5697 5690 5682 5674 5666 5659 5652 5646 5640 5635 5630 5625 5620 5614 5608 5601 5592 5586 5583 5580 5577 5575 5573 5570 5566 5563 5559 5558 5557 5556
5758 5757 5752 5749 5748 5744 5735 5726 5719 5715 5709 5703 5696 5690 5684 5678 5672 5663 5655 5648 5641 5634 5630 5625 5621 5617 5612 5607 5600 5592 5583 5579 5575 5572 5570 5567 5562 5559 5555 5553 5552 5550 5548
5742 5742 5739 5736 5734 5732 5727 5717 5713 5708 5701 5694 5688 5682 5676 5670 5664 5657 5650 5642 5636 5630 5627 5623 5619 5614 5610 5604 5597 5589 5581 5574 5569 5567 5565 5560 5554 5551 5549 5547 5546 5544 5543
5726 5726 5724 5720 5718 5718 5715 5710 5706 5700 5692 5685 5679 5673 5666 5661 5656 5650 5646 5639 5634 5629 5624 5618 5613 5608 5603 5597 5591 5584 5576 5569 5564 5561 5559 5555 5552 5548 5547 5546 5545 5542 5542
5709 5708 5706 5703 5702 5702 5700 5698 5694 5688 5681 5674 5668 5662 5658 5655 5649 5646 5642 5638 5633 5626 5618 5612 5606 5600 5594 5589 5580 5574 5570 5565 5560 5553 5551 5551 5551 5550 5549 5548 5547 5545 5543
5692 5691 5689 5688 5687 5686 5684 5682 5679 5674 5667 5661 5657 5652 5649 5646 5644 5641 5639 5636 5629 5624 5617 5609 5602 5598 5591 5583 5575 5569 5562 5555 5548 5544 5547 5548 5549 5549 5548 5546 5545 5544 5542